This demonstration page uses our WeatherBlox Daily Observations layout. Learn more.

Left ArrowRight Arrow

41.12389, -100.76542

Hourly Observations for December 8, 2016

Temp ( °F °C ) Dew Point ( °F °C ) Humidity (%) Winds ( mph kmh ) Pressure ( in mb ) Visibility ( mi km ) Precip ( " mm )
12:53 am 00:53 Clear 5 -15 -2 -18.9 72 72 WNW 10 17 30.68 1039 10 16 0.00 0.00
1:53 am 01:53 Clear 3 -16.1 -2 -18.9 79 79 W 8 13 30.69 1039 10 16 0.00 0.00
2:53 am 02:53 Clear 2 -16.7 -3 -19.4 80 80 W 8 13 30.72 1040 10 16 0.00 0.00
3:53 am 03:53 Clear 2 -16.7 -4 -20 76 76 WNW 9 15 30.72 1040 10 16 0.00 0.00
4:53 am 04:53 Clear 1 -17.2 -5 -20.6 75 75 WNW 8 13 30.73 1041 10 16 0.00 0.00
5:53 am 05:53 Clear 1 -17.2 -5 -20.6 75 75 WNW 8 13 30.75 1041 10 16 0.00 0.00
6:53 am 06:53 Clear -1 -18.3 -6 -21.1 79 79 W 7 11 30.78 1042 10 16 0.00 0.00
7:53 am 07:53 Clear 0 -17.8 -6 -21.1 76 76 WNW 9 15 30.79 1043 10 16 0.00 0.00
8:53 am 08:53 Sunny 3 -16.1 -3 -19.4 76 76 WNW 7 11 30.81 1044 10 16 0.00 0.00
9:53 am 09:53 Sunny 7 -13.9 -1 -18.3 70 70 NW 12 19 30.82 1044 10 16 0.00 0.00
10:53 am 10:53 Sunny 15 -9.4 2 -16.7 56 56 NNW 14 22 30.79 1043 10 16 0.00 0.00
11:53 am 11:53 Sunny 18 -7.8 0 -17.8 45 45 NW 10 17 30.77 1042 10 16 0.00 0.00
12:53 pm 12:53 Sunny 19 -7.2 -1 -18.3 41 41 NNW 6 9 30.75 1041 10 16 0.00 0.00
1:53 pm 13:53 Sunny 21 -6.1 -1 -18.3 38 38 W 6 9 30.72 1040 10 16 0.00 0.00
2:53 pm 14:53 Sunny 22 -5.6 -2 -18.9 35 35 N 7 11 30.70 1040 10 16 0.00 0.00
3:53 pm 15:53 Sunny 22 -5.6 -2 -18.9 35 35 W 5 7 30.69 1039 10 16 0.00 0.00
4:53 pm 16:53 Sunny 20 -6.7 -1 -18.3 40 40 Calm 30.69 1039 10 16 0.00 0.00
5:53 pm 17:53 Clear 14 -10 2 -16.7 58 58 SW 6 9 30.71 1040 10 16 0.00 0.00
6:53 pm 18:53 Clear 9 -12.8 -1 -18.3 64 64 Calm 30.74 1041 10 16 0.00 0.00
7:53 pm 19:53 Clear 4 -15.6 -2 -18.9 76 76 E 3 6 30.73 1041 10 16 0.00 0.00
8:53 pm 20:53 Clear 4 -15.6 -2 -18.9 76 76 Calm 30.72 1040 10 16 0.00 0.00
9:53 pm 21:53 Clear 2 -16.7 -4 -20 76 76 E 3 6 30.70 1040 10 16 0.00 0.00
10:53 pm 22:53 Clear 3 -16.1 -2 -18.9 79 79 Calm 30.66 1038 10 16 0.00 0.00
11:53 pm 23:53 Clear 2 -16.7 -3 -19.4 80 80 ENE 3 6 30.65 1038 10 16 0.00 0.00

Powered by AerisWeather